User: anonymous   Login
Location: Unspecified
(0.0000°N, 0.0000°E)
Time: 07:54:22
(UTC+00:00)
Language:

AMOS 1 - Orbit

View from above orbital plane
View from above orbital plane
View from above satellite
View from above satellite

Ground track
Ground track

The orbit data is extracted from the following two-line orbital elements,

1 23865U 96030B   17016.46700622 -.00000067 +00000-0 +00000-0 0  9998
2 23865 006.8073 055.1360 0008658 148.9333 334.7782 00.97116495075185
Epoch (UTC): 16 January 2017 11:12:29
Eccentricity: 0.0008658
inclination: 6.8073°
perigee height: 36657 km
apogee height: 36732 km
right ascension of ascending node: 55.1360°
argument of perigee: 148.9333°
revolutions per day: 0.97116495
mean anomaly at epoch: 334.7782°
orbit number at epoch: 7518

The dashed part of the orbit path shows where the satellite is in the earth's shadow,  

DLR